Content
SEND FEEDBACK

Daily
Averages
Monthly
Summary
United States of America

MERIZO, GUAM


Home > North America > United States > Guam
Elevation: 10 feet     Latitude: 13 14N     Longitude: 144 39E

WEATHER
 
SELECT A DAY
Number of Records: 352,517;   Date Range: 1/1/95 - 10/30/14
 
SHARE

PRINT THIS DATA

[ ← Previous Day ]
WEATHER ALMANAC - JANUARY 24, 2013
[ Next Day → ]
[ °C ]   °F
Weather ElementAverageHighLow
Temperature77.9 °F86 °F (11:55 am)74.3 °F (6:55 am)
Dewpoint66.7 °F68.2 °F (1:55 am)63.3 °F (7:55 pm)
Humidity68.8 %80 % (2:55 am)52 % (1:55 pm)
Barometer29.86 in29.92 in (8:55 am)29.81 in (2:55 pm)
Wind Speed10 mph12.7 mph (9:55 am)
Weather ElementAverage
Visibility10 mi
Wind DirectionNE (41.5 °)

Weather ElementTotal
Precipitation---
Cooling Degree Days15.2 (Base 65)
Growing Degree Days30.2 (Base 50)
Averaged from 27 records on January 24, 2013
WEATHER CONDITIONS BREAKOUT
WIND DIRECTION BREAKOUT
WEATHER BY HOUR - JANUARY 24, 2013
[ °C ]   °F
Local TimeTemperatureDewpointHumidityBarometerVisibilityWind DirectionWind SpeedGust SpeedPrecipitationEventsConditions
1:55 AM75.0 °F68.2 °F79 %29.87 in10.0 miNE (40°)10.4 mphPartly Cloudy
2:33 AM75.2 °F68.0 °F78 %29.86 in10.0 miNE (50°)9.2 mphMostly Cloudy
2:36 AM75.2 °F68.0 °F78 %29.86 in10.0 miNE (50°)9.2 mphScattered Clouds
2:53 AM75.2 °F68.0 °F78 %29.86 in10.0 miNE (50°)9.2 mphMostly Cloudy
2:55 AM74.8 °F68.2 °F80 %29.86 in10.0 miNE (50°)9.2 mphMostly Cloudy
3:00 AM75.2 °F68.0 °F78 %29.86 in10.0 miNE (40°)11.5 mphScattered Clouds
3:55 AM74.8 °F67.5 °F78 %29.85 in10.0 miNE (50°)10.4 mphClear
4:55 AM75.0 °F67.5 °F77 %29.86 in10.0 miNE (50°)9.2 mphScattered Clouds
5:55 AM74.7 °F66.7 °F76 %29.87 in10.0 miNE (50°)9.2 mphPartly Cloudy
6:55 AM74.3 °F66.9 °F78 %29.88 in10.0 miNE (40°)9.2 mphPartly Cloudy
7:55 AM77.4 °F67.1 °F71 %29.90 in10.0 miNE (50°)10.4 mphPartly Cloudy
8:55 AM79.3 °F66.6 °F65 %29.92 in10.0 miNE (50°)10.4 mphPartly Cloudy
9:55 AM80.6 °F67.1 °F63 %29.92 in10.0 miNNE (30°)12.7 mphClear
10:55 AM81.5 °F67.3 °F62 %29.90 in10.0 miNNE (30°)12.7 mphClear
11:55 AM86.0 °F67.3 °F53 %29.88 in10.0 miENE (70°)9.2 mphPartly Cloudy
12:55 PM86.0 °F67.3 °F53 %29.86 in10.0 miNE (50°)10.4 mphClear
1:55 PM86.0 °F66.7 °F52 %29.83 in10.0 miNE (40°)10.4 mphPartly Cloudy
2:55 PM81.1 °F66.9 °F62 %29.81 in10.0 miNE (40°)9.2 mphClear
3:55 PM81.1 °F66.7 °F61 %29.81 in10.0 miNNE (30°)11.5 mphClear
4:55 PM80.6 °F64.8 °F58 %29.82 in10.0 miNE (40°)10.4 mphClear
5:55 PM77.7 °F64.6 °F64 %29.82 in10.0 miNE (50°)10.4 mphClear
6:55 PM76.6 °F64.8 °F67 %29.83 in10.0 miNNE (30°)8.1 mphClear
7:55 PM75.2 °F63.3 °F66 %29.84 in10.0 miNNE (30°)8.1 mphClear
8:55 PM76.3 °F65.1 °F68 %29.86 in10.0 miNNE (20°)10.4 mphClear
9:55 PM75.9 °F66.6 °F73 %29.87 in10.0 miNNE (20°)11.5 mphScattered Clouds
10:55 PM76.1 °F65.5 °F70 %29.87 in10.0 miNNE (30°)9.2 mphMostly Cloudy
11:55 PM76.3 °F65.5 °F69 %29.87 in10.0 miNE (40°)9.2 mphMostly Cloudy
Hourly data recorded from PGUA, located miles away from Merizo, Guam







STORIES FROM OUR PARTNERS